CW0238 Weather Reports


time (UTC)temp
C
wind
direction
speed
KPH
gust
KPH
rain 1hr
cm
rain 24hr
cm
rain mn
cm
humidity
%
barometer
mb
20260504014427 12 196 0.0 0.0 0.00 0.00 0.00 65 1014.0
20260504013926 12 196 0.0 0.0 0.00 0.00 0.00 63 1013.9
20260504013424 12 196 0.0 0.0 0.00 0.00 0.00 63 1013.9
20260504012922 12 196 0.0 0.0 0.00 0.00 0.00 61 1013.9
20260504012416 12 196 0.0 0.0 0.00 0.00 0.00 61 1013.9
20260504012146 13 196 0.0 0.0 0.00 0.00 0.00 59 1013.9
20260504011429 13 196 0.0 0.0 0.00 0.00 0.00 57 1013.9
20260504010910 13 196 0.0 0.0 0.00 0.00 0.00 57 1013.7
20260504010408 13 196 0.0 0.0 0.00 0.00 0.00 56 1013.5
20260504005909 14 196 0.0 0.0 0.00 0.00 0.00 60 1013.4
20260504005401 14 196 0.0 0.0 0.00 0.00 0.00 58 1013.3
20260504004900 15 196 0.0 0.0 0.00 0.00 0.00 54 1013.4
20260504004402 15 196 0.0 0.0 0.00 0.00 0.00 52 1013.3
20260504003858 15 196 0.0 0.0 0.00 0.00 0.00 50 1013.4
20260504003358 16 196 0.0 0.0 0.00 0.00 0.00 48 1013.3
20260504002853 16 196 0.0 0.0 0.00 0.00 0.00 46 1013.3
20260504002351 16 196 0.0 3.2 0.00 0.00 0.00 46 1013.2
20260504002109 16 196 0.0 3.2 0.00 0.00 0.00 46 1013.1
20260504001346 16 198 0.0 0.0 0.00 0.00 0.00 46 1013.2
20260504000342 17 199 0.0 1.6 0.00 0.00 0.00 45 1013.1
20260503235840 17 199 0.0 1.6 0.00 0.00 0.00 44 1013.1
20260503235341 17 199 0.0 1.6 0.00 0.00 0.00 44 1013.1
20260503234843 17 199 0.0 1.6 0.00 0.00 0.00 44 1013.1
20260503234338 17 201 0.0 1.6 0.00 0.00 0.00 44 1013.1
20260503233838 17 200 0.0 6.4 0.00 0.00 0.00 43 1013.2
20260503232837 17 183 0.0 3.2 0.00 0.00 0.00 42 1013.1
20260503232336 17 180 0.0 1.6 0.00 0.00 0.00 42 1013.1
20260503231835 17 180 0.0 1.6 0.00 0.00 0.00 41 1013.2
20260503231334 17 180 1.6 8.0 0.00 0.00 0.00 41 1013.2
20260503231102 18 208 0.0 8.0 0.00 0.00 0.00 40 1013.3
20260503230329 18 143 0.0 4.8 0.00 0.00 0.00 41 1013.4
20260503230054 18 96 0.0 3.2 0.00 0.00 0.00 42 1013.5
20260503225332 17 103 0.0 3.2 0.00 0.00 0.00 42 1013.7
20260503224821 18 224 0.0 3.2 0.00 0.00 0.00 41 1013.8
20260503224322 17 198 0.0 6.4 0.00 0.00 0.00 41 1013.8
20260503224045 18 209 1.6 9.7 0.00 0.00 0.00 40 1013.9
20260503223316 18 285 1.6 9.7 0.00 0.00 0.00 40 1014.1
20260503222816 18 128 1.6 9.7 0.00 0.00 0.00 39 1014.1
20260503222316 18 160 1.6 9.7 0.00 0.00 0.00 38 1014.2
20260503221810 18 134 1.6 9.7 0.00 0.00 0.00 39 1014.3
20260503221310 18 180 1.6 9.7 0.00 0.00 0.00 39 1014.1
20260503221037 18 152 1.6 6.4 0.00 0.00 0.00 39 1014.1
20260503220307 18 146 1.6 6.4 0.00 0.00 0.00 38 1014.1
20260503215806 18 169 1.6 9.7 0.00 0.00 0.00 37 1014.3
20260503215526 18 182 1.6 9.7 0.00 0.00 0.00 35 1014.6
20260503215034 18 333 1.6 17.7 0.00 0.00 0.00 37 1014.7
20260503214309 18 273 1.6 17.7 0.00 0.00 0.00 36 1014.8
20260503213806 18 344 3.2 14.5 0.00 0.00 0.00 36 1014.7
20260503213535 18 194 3.2 14.5 0.00 0.00 0.00 35 1015.0
20260503212806 18 302 1.6 11.3 0.00 0.00 0.00 35 1015.0
20260503212307 18 284 1.6 12.9 0.00 0.00 0.00 34 1015.2
20260503211806 18 111 1.6 12.9 0.00 0.00 0.00 35 1015.3
20260503211530 18 223 1.6 11.3 0.00 0.00 0.00 35 1015.0
20260503210804 18 278 1.6 6.4 0.00 0.00 0.00 35 1014.8
20260503210304 18 211 0.0 4.8 0.00 0.00 0.00 36 1014.7
20260503205800 18 288 0.0 11.3 0.00 0.00 0.00 36 1015.0
20260503205259 18 93 1.6 11.3 0.00 0.00 0.00 34 1015.3
20260503204758 18 258 1.6 9.7 0.00 0.00 0.00 36 1015.4
20260503204256 17 148 1.6 9.7 0.00 0.00 0.00 34 1015.5
20260503203756 18 170 1.6 6.4 0.00 0.00 0.00 34 1015.5
20260503202757 18 232 3.2 14.5 0.00 0.00 0.00 35 1015.6
20260503202258 18 273 1.6 14.5 0.00 0.00 0.00 32 1015.7
20260503201757 18 103 1.6 6.4 0.00 0.00 0.00 34 1015.8
20260503201254 18 200 1.6 6.4 0.00 0.00 0.00 32 1015.8
20260503201011 18 266 1.6 25.7 0.00 0.00 0.00 33 1015.9
20260503200255 18 283 3.2 25.7 0.00 0.00 0.00 34 1016.0
20260503195754 18 197 1.6 9.7 0.00 0.00 0.00 33 1016.1
20260503195252 18 151 1.6 9.7 0.00 0.00 0.00 33 1016.3
20260503194754 18 258 1.6 6.4 0.00 0.00 0.00 35 1015.7
20260503194254 18 148 1.6 6.4 0.00 0.00 0.00 36 1015.8
20260503193752 18 138 1.6 11.3 0.00 0.00 0.00 32 1016.0
20260503193254 18 307 1.6 11.3 0.00 0.00 0.00 33 1016.0
20260503192752 18 216 1.6 8.0 0.00 0.00 0.00 35 1016.1
20260503192249 18 190 0.0 8.0 0.00 0.00 0.00 34 1016.2
20260503192005 17 121 1.6 17.7 0.00 0.00 0.00 35 1016.3
20260503191514 17 195 1.6 17.7 0.00 0.00 0.00 34 1016.4
20260503190741 18 315 0.0 14.5 0.00 0.00 0.00 34 1016.4
20260503190245 17 172 0.0 3.2 0.00 0.00 0.00 33 1016.5
20260503185742 17 0.0 0.0 0.00 0.00 0.00 35 1016.7
20260503185237 17 0.0 0.0 0.00 0.00 0.00 35 1016.7
20260503184718 17 0 0.0 0.0 0.00 0.00 0.00 35 1016.8
20260503184213 17 0 0.0 0.0 0.00 0.00 0.00 35 1016.8
20260503183712 17 0 0.0 0.0 0.00 0.00 0.00 36 1017.0
20260503183211 17 0 0.0 0.0 0.00 0.00 0.00 35 1017.0
20260503182705 17 0 0.0 0.0 0.00 0.00 0.00 34 1017.3
20260503182205 17 0 0.0 0.0 0.00 0.00 0.00 37 1017.4
20260503181712 17 0 0.0 0.0 0.00 0.00 0.00 37 1017.3
20260503181200 17 0 0.0 0.0 0.00 0.00 0.00 36 1017.3
20260503180658 17 0 0.0 0.0 0.00 0.00 0.00 36 1017.4
20260503180158 17 118 0.0 0.0 0.00 0.00 0.00 35 1017.7
20260503175657 17 126 0.0 0.0 0.00 0.00 0.00 36 1017.7
20260503175156 16 126 0.0 0.0 0.00 0.00 0.00 35 1017.7
20260503174656 16 126 0.0 0.0 0.00 0.00 0.00 37 1017.8
20260503174152 16 126 0.0 0.0 0.00 0.00 0.00 34 1017.8
20260503173651 16 126 0.0 0.0 0.00 0.00 0.00 36 1018.0
20260503173150 17 126 0.0 0.0 0.00 0.00 0.00 37 1018.1
20260503172649 16 126 0.0 0.0 0.00 0.00 0.00 37 1018.0
20260503172150 16 126 0.0 0.0 0.00 0.00 0.00 36 1018.2
20260503171647 16 126 0.0 0.0 0.00 0.00 0.00 37 1018.4
20260503171141 16 126 0.0 0.0 0.00 0.00 0.00 36 1018.4
20260503170639 16 126 0.0 0.0 0.00 0.00 0.00 36 1018.5
20260503170356 16 126 0.0 0.0 0.00 0.00 0.00 38 1018.6
20260503160121 15 290 0.0 3.2 0.00 0.00 0.00 39 1019.4